Regional Weather Roundup
Issued by NWS Goodland, KS

Home | Current Version | Previous Version | Text Only | Print | Product List | Glossary On
Versions: 1 2 3 4 5 6 7 8 9 10 11 12 13 14 15 16 17 18 19 20 21 22 23 24 25 26 27 28 29 30 31 32 33 34 35 36 37 38 39 40 41 42 43 44 45 46 47 48 49 50
000
ASUS43 KGLD 222208
RWRGLD

GOODLAND FORECAST AREA HOURLY WEATHER ROUNDUP
NATIONAL WEATHER SERVICE GOODLAND KS
300 PM MST WED FEB 22 2017

...OFFICIAL OBSERVATIONS...

CITY           SKY/WX    TMP DP  RH WIND       PRES   REMARKS
GOODLAND KS    SUNNY     64  20  18 VRB3      29.76F
HILL CITY KS   CLOUDY    73  23  15 MISG      29.73F
IMPERIAL NEB   SUNNY     64  18  17 N14       29.76S
MCCOOK NEB     SUNNY     67  25  20 N8        29.75S
AKRON CO       SUNNY     59  18  20 N9        29.78F
BURLINGTON CO  SUNNY     64  23  21 E12       29.77F
LIMON CO       SUNNY     59  20  22 E15       29.75F
$$

...UNOFFICIAL OBSERVATIONS...

CITY           SKY/WX    TMP DP  RH WIND       PRES   REMARKS
LENORA KS        N/A     68  32  26 CALM        N/A
NORTON KS      SUNNY     68  10  10 NW7       29.73
SHARON SPRINGS   N/A     67  26  21 CALM        N/A
TRENTON NEB      N/A     65  32  29 N6          N/A
KIT CARSON CO    N/A     65  26  23 MISG        N/A
YUMA CO        FAIR      59  19  21 N7G16     29.77F
$$



USA.gov is the U.S. government's official web portal to all federal, state and local government web resources and services.